GFSNW_prec_cthk_135.txt.gz
RH
22 24 28 37 38 24 20 23 27 19 21 32 35 43 42 42 42 42 41 39 39 35 34 32 32 29 31 28 29 29 28 26 35 31 30 29 32 29 24 23 24 18 20 16
19 20 24 27 33 38 33 22 22 20 20 29 27 29 30 32 35 38 38 39 38 37 36 35 34 34 35 33 32 32 31 27 29 25 27 30 29 23 22 23 23 21 17 15
17 18 20 23 26 29 35 38 30 20 21 23 22 23 26 28 30 29 29 28 29 30 30 29 32 33 33 33 31 30 25 22 21 23 21 22 23 22 24 24 29 20 18 16
14 16 17 20 22 25 25 33 39 40 25 20 21 23 24 26 28 29 29 28 27 26 24 25 25 28 29 29 29 26 25 24 25 21 19 19 18 18 23 26 22 21 18 19
14 14 15 16 19 22 24 27 30 37 42 43 28 20 21 21 23 24 25 25 25 25 24 24 24 26 26 26 31 30 29 30 30 32 21 23 24 21 21 23 29 29 27 27
16 14 14 15 17 19 21 23 24 27 31 39 41 45 40 25 21 22 22 22 22 23 24 24 24 25 26 26 29 31 32 31 33 28 25 25 24 21 24 26 26 25 30 28
17 16 15 15 16 17 19 21 23 26 28 28 28 37 44 48 50 42 34 26 24 24 22 21 21 24 25 26 29 31 32 32 34 37 29 35 23 22 22 24 27 28 30 31
21 18 16 16 16 17 18 20 22 25 26 28 27 30 36 40 46 49 53 56 57 52 46 35 31 28 33 32 32 31 32 34 36 39 31 24 24 28 31 33 33 32 39 45
24 22 19 18 17 16 18 20 22 23 27 30 30 32 36 37 36 37 43 50 51 53 53 50 48 44 40 47 50 46 46 40 41 40 43 41 37 40 43 47 49 52 55 57
27 25 22 21 21 21 20 21 22 23 26 28 30 34 41 42 41 40 41 42 44 47 51 51 51 51 52 50 53 64 63 65 65 60 59 51 50 51 52 54 57 58 57 57
31 29 27 26 26 25 26 24 23 24 28 30 32 38 43 45 47 47 47 48 49 50 50 47 44 46 45 46 44 53 55 58 61 60 63 65 53 55 55 59 57 56 57 56
37 34 32 34 33 33 30 30 27 26 28 34 40 47 50 50 50 48 51 50 48 50 51 49 47 46 45 44 47 53 57 52 55 55 56 55 53 52 53 55 57 60 60 58
45 42 37 37 39 40 39 34 33 31 33 37 43 51 54 55 54 52 51 54 55 54 54 53 53 54 54 54 51 48 48 49 53 53 52 54 56 57 57 58 61 62 63 59
57 53 46 43 43 45 44 41 38 39 41 48 48 53 56 55 56 55 54 54 54 56 59 63 61 60 58 56 57 55 53 53 53 51 53 55 57 60 62 62 61 58 55 55
68 63 57 51 50 50 52 48 44 46 51 53 56 58 59 59 58 57 56 57 59 60 62 64 64 63 64 62 63 58 57 56 58 57 58 59 60 64 63 63 62 57 53 50
75 71 68 61 58 56 62 60 52 51 56 55 57 60 62 62 62 62 61 60 60 61 62 61 60 62 65 67 58 50 53 54 57 58 60 63 63 61 58 56 53 47 42 40
82 78 77 72 66 64 68 65 57 61 64 60 60 64 66 66 65 66 67 68 68 68 70 68 65 63 67 66 57 52 52 53 55 57 59 57 56 53 46 42 39 39 44 48
93 96 84 82 76 73 76 73 69 72 73 70 69 68 68 70 71 70 68 68 70 70 70 68 68 67 67 64 53 52 55 55 54 55 56 51 47 44 43 42 42 43 46 44
98 98 91 95 85 86 79 79 82 83 82 76 72 75 76 71 71 70 69 68 67 67 67 67 66 62 61 52 52 53 55 55 56 52 47 44 43 44 42 41 40 42 42 42
99 98 94 98 90 92 92 92 89 87 87 82 81 81 78 74 73 72 70 69 68 69 65 67 66 55 48 48 50 51 52 53 48 41 38 36 34 36 37 38 40 40 38 39
98 98 97 95 96 95 97 97 93 88 84 84 81 80 80 77 76 75 72 70 70 68 66 65 61 54 45 46 49 50 47 41 37 33 33 34 36 38 38 39 38 38 37 34
96 98 98 98 98 97 97 93 86 85 84 83 81 80 79 79 75 73 75 72 71 69 70 70 61 49 47 47 47 42 40 37 36 36 37 38 38 38 35 33 34 35 29 22
98 98 98 98 97 97 94 86 80 84 79 82 79 79 80 79 75 75 76 77 75 71 71 64 53 48 47 46 42 43 42 41 41 43 41 40 40 39 41 38 34 28 22 19
98 97 97 97 96 93 86 77 77 80 81 78 81 81 78 79 78 79 80 78 74 73 69 60 51 46 46 44 43 45 46 44 46 45 44 44 46 44 37 30 26 23 19 17
97 97 97 95 90 86 81 78 79 82 89 86 84 82 82 83 81 76 77 77 71 67 61 57 53 48 48 49 50 51 50 51 50 47 47 49 42 36 31 27 25 23 22 21
97 96 94 88 85 82 81 83 86 86 87 87 85 82 82 79 76 77 73 72 66 63 62 57 52 50 52 56 60 61 63 59 53 51 44 39 37 36 35 29 25 25 24 22
96 94 93 86 83 81 83 83 84 86 87 83 80 79 72 72 72 72 67 65 60 58 59 56 54 51 50 50 48 49 48 45 44 42 39 38 35 36 35 33 27 29 27 26

GFSNW_prec_cthk_138.txt.gz
RH
18 20 23 29 34 33 21 26 31 20 27 40 40 46 42 41 41 40 37 36 34 33 31 33 32 33 36 33 32 34 33 35 49 35 33 30 31 29 25 31 30 25 27 27
17 17 20 23 27 32 36 26 22 19 27 35 32 32 36 36 36 38 38 38 38 35 33 34 32 34 34 30 30 35 30 30 39 31 31 29 29 25 25 26 28 29 29 21
16 17 17 20 22 23 27 37 43 23 22 23 22 23 24 26 28 30 32 34 33 34 33 32 34 37 34 32 31 29 29 30 29 36 27 28 26 23 23 24 38 28 22 15
16 16 16 17 19 20 22 28 35 41 40 22 23 25 25 26 28 28 27 25 27 25 26 26 27 31 31 30 30 28 27 29 25 23 21 19 18 18 22 26 24 26 17 18
18 17 16 16 17 19 21 27 28 29 35 41 39 29 23 24 23 25 25 25 24 24 24 24 26 24 25 26 29 26 26 29 29 32 23 23 24 22 20 20 25 26 25 26
20 18 17 16 16 18 21 20 21 27 27 29 33 42 45 38 25 22 22 22 22 23 25 23 22 23 24 26 29 30 31 33 37 35 26 26 27 21 23 24 23 25 32 29
21 20 19 18 17 17 18 20 21 23 29 28 28 30 34 39 45 47 44 37 31 29 26 24 22 22 23 24 26 29 32 33 37 44 30 39 22 21 22 23 25 28 28 30
23 22 20 19 19 18 18 18 21 24 25 25 27 30 35 38 38 38 42 48 52 56 54 49 43 40 36 34 37 39 37 38 40 45 42 28 22 26 29 33 36 35 35 37
28 25 22 21 21 20 18 19 20 21 27 26 23 26 32 40 40 41 41 40 41 44 49 48 51 54 47 56 55 51 51 49 51 46 51 47 35 39 40 42 50 48 51 52
35 32 28 24 23 24 23 21 21 22 25 25 24 26 30 37 41 44 45 46 45 44 44 46 46 48 45 52 56 67 67 66 70 68 70 57 51 51 51 54 56 54 55 58
42 38 34 30 26 26 28 28 26 25 26 27 26 27 30 37 44 48 51 51 51 51 52 52 50 47 43 41 43 52 57 63 66 65 68 66 52 52 53 52 52 52 53 54
54 47 42 38 34 31 30 31 33 31 30 29 29 30 34 41 48 52 52 52 50 51 54 52 50 51 47 47 48 46 52 49 54 54 56 51 52 51 50 51 52 54 55 56
64 56 51 49 47 40 36 34 34 35 35 35 34 32 35 44 53 56 57 54 52 51 54 55 55 53 52 56 56 52 51 50 52 52 48 51 50 51 52 55 56 57 59 60
70 66 62 59 58 51 44 43 38 37 39 42 40 39 40 47 56 58 60 61 58 56 55 56 59 59 55 57 56 55 53 52 55 55 52 53 53 53 56 57 59 59 57 54
78 78 70 69 67 64 56 51 49 43 42 48 47 49 50 51 53 57 62 64 64 62 61 61 62 59 62 60 60 57 53 53 55 54 49 50 52 55 58 59 58 53 50 49
86 82 83 78 74 72 67 60 53 50 48 46 50 52 52 52 55 59 64 66 68 67 66 66 63 62 62 66 63 50 50 51 51 52 51 52 55 58 58 55 51 49 46 43
92 92 90 88 84 81 78 71 61 58 58 58 57 57 56 56 63 67 68 68 68 69 70 68 66 65 66 67 62 53 52 51 52 54 55 56 57 56 54 50 46 44 43 42
96 97 97 96 93 90 81 77 74 74 73 68 65 62 61 63 72 75 76 76 77 77 76 74 72 70 69 66 54 52 52 53 53 54 55 54 55 52 45 43 40 38 36 35
98 98 98 98 98 97 95 89 86 84 84 79 72 75 76 73 77 79 81 82 79 76 75 74 72 68 65 54 52 51 51 51 51 51 53 52 45 39 35 32 32 32 33 33
97 98 98 96 95 96 97 99 97 94 90 88 84 79 83 84 86 86 85 85 83 81 74 74 72 63 53 50 50 51 52 52 49 50 48 41 34 32 31 32 32 32 32 30
98 97 99 97 97 99 98 98 95 93 90 86 80 84 87 88 91 91 87 87 84 80 76 75 69 65 53 50 49 51 53 53 52 49 42 36 34 33 33 35 36 35 35 34
93 98 99 98 98 98 98 96 95 92 90 83 83 83 88 90 91 90 89 87 83 80 78 76 66 59 55 53 53 53 53 51 46 41 39 39 38 38 39 39 40 39 37 38
99 99 98 98 97 97 93 87 85 82 81 84 86 88 89 88 88 87 87 87 83 80 78 69 63 58 54 53 57 54 50 46 44 43 45 46 45 44 43 42 42 42 39 33
98 98 97 98 96 92 89 85 84 84 85 83 85 89 89 91 88 92 89 85 84 83 82 70 65 57 53 53 53 53 53 50 49 52 53 53 50 47 46 47 46 44 40 30
98 98 97 95 91 93 92 88 86 87 85 83 86 88 89 92 92 88 87 89 84 82 75 72 61 56 55 54 55 57 59 59 59 61 61 59 56 52 47 44 40 35 30 28
98 97 97 94 94 92 92 90 90 88 91 94 95 96 95 91 89 89 86 86 80 74 73 67 60 57 54 51 50 49 51 52 55 58 56 47 38 35 32 30 26 25 26 28
97 97 97 95 93 92 88 89 93 95 96 98 96 96 90 88 87 83 80 80 75 71 69 64 61 59 56 55 54 52 48 45 40 35 28 26 23 21 21 19 17 23 27 31

GFSNW_prec_cthk_141.txt.gz
RH
18 18 22 24 25 36 25 24 25 22 32 39 41 45 40 38 37 36 37 36 36 36 35 36 37 42 39 34 32 31 30 35 46 34 36 36 37 34 28 28 28 29 32 26
18 17 19 22 24 23 30 37 22 21 26 32 34 35 38 40 40 38 36 35 33 32 32 34 35 38 38 34 36 37 34 36 47 38 38 37 35 30 29 28 32 31 29 17
17 18 17 19 21 21 22 30 42 31 22 23 25 25 25 28 31 33 35 35 34 33 32 31 33 36 33 31 31 30 29 31 31 30 29 31 30 25 24 29 40 28 27 16
18 18 18 17 19 21 23 25 26 32 42 36 23 24 26 27 27 26 25 26 29 31 30 29 32 35 34 31 30 29 29 29 31 26 25 24 21 22 23 26 23 22 17 18
19 18 18 18 18 19 22 24 25 25 27 28 35 41 33 24 23 24 25 26 24 25 24 23 25 27 27 27 28 27 27 26 29 29 23 25 26 23 21 22 24 24 24 23
20 18 18 18 18 18 21 22 21 25 25 27 30 33 35 41 40 29 25 22 23 23 25 24 25 25 25 27 30 30 31 32 36 31 30 26 19 19 20 22 21 23 30 25
25 22 19 18 18 18 19 21 22 25 27 25 26 29 32 34 33 38 41 44 44 41 33 29 25 24 23 25 29 29 33 35 37 42 30 31 16 21 22 25 25 26 27 29
34 28 25 20 19 19 19 19 21 25 28 25 24 25 30 36 39 39 37 35 38 43 46 50 53 54 45 41 42 42 43 46 44 45 49 28 20 21 23 29 33 34 36 39
40 38 31 28 23 21 20 20 21 22 27 26 24 24 26 31 37 41 43 44 45 43 42 40 41 47 47 57 59 58 58 58 58 61 59 48 39 40 40 41 45 44 45 48
46 42 38 34 31 28 26 25 23 24 25 26 26 24 27 27 31 38 44 47 47 47 48 49 49 47 40 47 52 58 62 64 69 67 68 57 48 47 49 51 49 50 50 50
53 49 44 41 38 33 32 31 29 27 27 27 28 28 29 29 31 38 44 50 54 54 56 54 53 50 46 44 47 53 54 59 62 63 65 60 44 48 48 47 48 48 48 50
61 57 53 50 45 44 38 35 34 33 30 29 31 32 33 35 37 39 44 49 55 54 56 57 56 53 50 49 49 49 52 50 57 55 52 47 48 46 46 47 47 49 51 53
68 63 64 61 56 51 49 45 40 37 37 32 31 30 31 35 38 42 46 51 57 59 60 59 58 56 54 55 53 49 48 50 54 54 50 52 53 53 53 53 51 52 54 56
75 76 72 70 67 62 57 53 50 44 44 43 36 35 36 37 41 44 49 56 56 60 64 64 64 61 55 56 56 55 52 54 55 54 51 51 50 50 51 51 53 54 55 57
81 81 79 80 78 75 68 63 60 54 51 53 48 44 42 41 40 43 53 56 58 61 64 70 72 67 64 61 60 56 55 57 58 55 51 51 50 50 51 53 55 55 55 52
80 82 82 81 82 83 81 75 67 61 60 58 54 49 45 44 48 49 49 56 62 64 68 71 70 69 71 71 68 54 55 54 54 53 52 53 53 54 55 55 57 56 52 49
80 82 86 88 89 91 88 83 76 70 67 65 62 58 54 49 50 52 56 60 67 73 74 74 73 72 72 73 70 58 57 57 56 56 57 57 57 58 59 60 57 52 46 42
87 89 87 88 88 87 87 90 86 83 81 79 78 68 63 60 59 62 65 71 76 79 83 81 81 80 79 75 62 61 59 58 57 56 56 57 58 58 59 56 49 41 38 36
97 98 98 98 89 87 90 94 95 93 90 83 75 72 74 75 78 78 78 80 86 89 91 90 88 84 77 68 65 62 60 59 58 57 57 57 58 59 55 46 39 37 36 35
95 98 96 94 92 92 96 97 98 95 90 83 78 76 82 80 83 86 86 89 92 93 85 87 86 78 69 67 65 62 61 62 60 60 58 56 58 55 46 40 38 36 35 35
98 86 98 95 97 99 99 98 94 93 91 83 79 79 83 86 88 93 96 96 96 94 84 88 82 78 69 65 60 59 60 63 63 64 59 55 52 46 41 40 41 40 41 41
89 89 90 96 98 98 98 93 91 86 82 75 76 82 87 90 95 98 97 97 96 93 87 87 80 71 68 64 62 63 63 63 62 61 57 51 46 44 44 44 45 46 45 45
85 82 87 93 94 94 87 81 81 79 74 80 82 86 87 90 92 97 97 97 95 90 89 82 74 72 68 65 67 66 64 62 56 49 47 48 48 48 51 52 54 48 43 42
70 77 90 97 93 86 75 68 73 76 78 82 83 88 89 91 93 97 97 93 93 91 88 81 79 74 72 72 70 67 66 59 54 54 53 54 56 57 58 57 52 47 40 32
90 98 97 93 86 85 82 80 82 85 86 85 88 91 92 93 93 93 95 95 90 84 81 77 72 69 66 60 58 59 58 58 55 55 53 49 47 49 47 42 35 28 23 23
98 97 96 92 88 86 85 88 89 88 89 89 91 95 94 93 93 94 93 94 88 83 83 78 74 70 66 63 60 58 55 54 52 49 47 44 43 39 32 26 24 25 26 26
96 95 95 94 91 90 89 91 92 95 96 97 95 95 92 95 96 92 91 93 89 85 86 84 78 71 66 63 59 56 54 49 44 41 37 33 29 27 25 24 23 27 25 28

GFSNW_prec_cthk_147.txt.gz
RH
16 16 17 20 22 21 28 32 26 28 31 31 35 39 39 40 41 42 43 40 37 36 36 38 41 40 39 39 36 33 35 36 45 32 34 33 29 30 30 32 26 35 33 28
17 15 16 17 20 19 22 27 31 31 25 31 35 33 35 35 34 36 37 39 40 38 38 36 37 35 34 30 30 28 26 28 37 29 30 33 34 32 25 27 30 34 29 22
23 17 15 16 18 20 21 23 27 26 30 30 28 28 31 32 35 33 33 32 33 33 34 36 39 38 35 33 32 31 28 30 26 26 24 30 33 32 35 32 46 35 33 25
28 24 17 15 16 19 21 20 22 27 30 30 33 31 25 24 24 27 28 32 33 32 31 32 36 38 38 38 37 35 33 31 36 35 34 35 34 33 37 39 34 33 23 23
30 28 25 20 16 17 20 19 23 21 24 27 29 32 36 34 31 28 24 24 25 23 24 23 27 30 29 27 31 30 32 29 34 33 28 29 31 27 27 27 24 26 23 21
31 31 29 25 23 21 20 22 21 24 23 23 26 30 33 34 33 32 35 33 31 28 26 25 25 25 24 24 26 27 27 29 31 25 29 26 19 17 20 20 21 20 24 15
44 39 35 30 26 24 25 23 23 23 25 25 23 24 26 31 33 33 36 35 34 38 41 44 42 39 36 35 34 31 31 32 34 40 27 24 14 18 19 23 20 20 19 20
55 49 45 39 33 30 28 27 26 27 29 26 25 24 26 28 29 32 34 35 36 39 40 40 41 42 39 45 52 57 56 56 52 53 55 38 32 36 35 35 31 25 24 29
58 55 52 46 43 36 34 34 30 29 30 28 27 28 26 27 29 31 34 35 36 38 41 42 43 44 42 46 50 51 54 53 53 58 60 47 35 41 42 42 44 45 45 47
60 57 55 53 48 45 40 38 37 36 33 32 30 29 30 29 28 31 32 34 37 40 42 44 46 47 47 50 53 59 60 61 64 65 64 49 40 39 40 42 42 45 47 49
68 60 55 55 54 51 47 44 42 39 38 36 37 34 32 32 31 32 32 33 35 40 42 45 47 49 48 48 52 59 60 64 66 67 70 63 45 47 49 48 48 48 48 48
77 74 60 55 59 55 54 52 49 46 43 40 38 39 38 36 36 35 36 35 38 36 39 42 47 50 52 52 55 57 58 55 58 58 53 47 48 49 50 50 51 53 54 55
75 74 70 63 62 61 59 58 58 55 50 45 43 41 40 40 40 40 41 40 40 41 41 45 49 51 50 52 55 53 54 55 58 59 50 52 52 52 53 55 55 56 58 57
76 77 76 76 70 67 66 66 64 61 57 56 51 50 49 48 47 46 45 45 45 47 48 50 55 54 51 52 51 51 49 57 60 61 58 57 55 56 56 58 60 61 61 61
74 75 78 80 77 74 71 68 67 67 65 63 62 59 59 57 54 53 53 52 52 52 55 57 56 55 58 59 60 54 47 54 62 62 59 60 60 60 62 63 63 63 64 65
71 74 75 77 74 77 76 72 70 70 72 71 68 64 62 62 64 64 61 59 61 61 62 64 63 60 62 66 66 50 48 52 58 63 66 68 70 67 65 66 68 68 70 69
79 75 79 81 77 76 76 72 70 72 74 74 69 66 67 71 72 71 71 70 70 71 72 74 71 69 71 72 69 54 55 56 59 64 67 70 73 71 71 71 71 70 70 69
77 91 86 84 88 80 77 75 76 73 74 77 76 67 66 67 69 72 73 76 79 78 77 75 74 74 75 74 60 60 64 67 70 73 76 78 80 80 78 77 77 76 73 71
88 75 81 99 90 80 79 85 82 81 81 80 70 67 65 67 72 75 79 84 85 81 79 80 82 79 77 70 70 72 75 76 80 81 83 83 84 83 82 80 79 78 76 73
75 86 92 98 90 91 92 89 95 96 90 80 72 69 77 76 79 84 84 85 88 86 82 83 79 71 68 72 72 74 76 80 81 80 79 81 81 80 80 80 78 76 71 71
63 95 98 98 97 99 99 99 95 89 80 73 68 72 80 82 86 88 88 89 89 88 81 87 77 69 66 66 68 70 74 76 75 77 77 77 78 78 76 72 71 74 77 75
58 88 95 95 98 99 99 96 90 79 74 65 67 68 81 85 88 91 89 90 91 87 82 82 74 65 64 65 66 68 73 76 78 79 77 74 73 73 73 73 74 72 70 70
57 80 83 91 98 98 96 78 71 66 62 71 74 80 80 84 88 91 90 91 89 84 83 73 66 65 65 65 67 66 70 71 74 73 70 70 69 67 66 66 67 66 60 56
49 66 77 95 97 89 71 65 65 58 65 74 82 83 73 76 83 88 88 85 83 82 78 71 70 66 68 69 69 72 71 69 68 67 67 67 63 61 61 60 56 52 50 45
53 66 80 90 78 62 65 70 63 59 66 75 84 84 74 75 84 88 90 88 81 73 71 70 65 63 64 64 64 63 61 62 63 63 63 63 62 58 52 50 48 44 37 35
66 74 74 67 75 74 71 54 52 61 76 86 85 81 73 82 91 92 87 84 75 70 75 70 66 64 62 64 65 67 71 70 68 66 61 56 52 50 49 46 41 37 35 33
64 63 71 77 82 83 71 52 62 78 85 84 82 82 75 89 94 90 84 80 77 72 73 70 71 70 69 69 74 73 67 63 59 56 55 53 48 43 40 35 31 30 31 31